📊 Raw Sensor Data

Showing records 44351 to 44375 of 85,034 total

ID Distance (ft) Battery V Battery A Int Temp (°F) Int Humid (%) Ext Temp (°F) Solar V RSSI SNR Time Stamp
40696 15.6 4.07 8 87 49 79 4.60 -68 8 05/15/2025 07:00 PM
40695 15.5 4.05 35 87 50 83 4.60 -69 5 05/15/2025 06:45 PM
40694 15.6 3.95 0 87 51 81 5.10 -69 8 05/15/2025 06:30 PM
40693 15.6 3.95 0 90 50 83 5.10 -68 8 05/15/2025 06:15 PM
40692 15.6 4.11 0 93 49 84 5.10 -67 8 05/15/2025 06:00 PM
40691 15.6 3.95 0 94 48 86 5.10 -69 8 05/15/2025 05:45 PM
40690 15.7 3.95 0 95 48 85 5.10 -69 7 05/15/2025 05:30 PM
40689 15.7 3.95 0 97 46 86 5.10 -69 8 05/15/2025 05:15 PM
40688 15.7 3.95 0 97 45 84 5.10 -69 7 05/15/2025 05:00 PM
40687 15.7 3.95 0 98 45 91 5.10 -68 7 05/15/2025 04:45 PM
40686 15.7 3.95 0 96 45 87 5.10 -69 7 05/15/2025 04:30 PM
40685 15.7 3.95 0 96 43 89 5.10 -69 7 05/15/2025 04:00 PM
40684 15.7 4.12 0 96 43 88 5.10 -68 8 05/15/2025 03:45 PM
40683 15.7 3.97 0 96 42 83 5.10 -68 8 05/15/2025 03:30 PM
40682 15.6 3.95 0 94 42 81 5.10 -68 8 05/15/2025 03:00 PM
40681 15.7 3.95 0 95 42 83 5.10 -69 8 05/15/2025 02:45 PM
40680 15.6 3.95 0 95 41 87 5.10 -69 7 05/15/2025 02:30 PM
40679 15.7 4.00 0 94 40 89 5.10 -71 7 05/15/2025 02:15 PM
40678 15.7 3.95 0 93 40 80 5.10 -69 8 05/15/2025 02:00 PM
40677 15.7 3.95 0 91 41 82 5.10 -68 7 05/15/2025 01:45 PM
40676 15.6 3.95 0 90 41 85 5.10 -69 8 05/15/2025 01:30 PM
40675 15.7 4.09 0 89 41 81 5.10 -69 8 05/15/2025 01:15 PM
40674 15.7 4.12 0 88 42 80 5.10 -69 8 05/15/2025 01:00 PM
40673 15.7 4.07 0 87 42 80 5.10 -68 8 05/15/2025 12:45 PM
40672 15.7 4.00 0 86 42 81 5.10 -68 7 05/15/2025 12:30 PM